Tracking 29892 objects as of 21-Nov-2024
HD Live streaming from Space Station
objects crossing your sky now

STARLINK-5646

Track STARLINK-5646 now!
10-day predictions
STARLINK-5646 is classified as:


NORAD ID: 55461
Int'l Code: 2023-015N
Perigee: 564.8 km
Apogee: 567.7 km
Inclination: 43.0 °
Period: 95.8 minutes
Semi major axis: 6937 km
RCS: Unknown
Launch date: February 2, 2023
Source: United States (US)
Launch site: AIR FORCE EASTERN TEST RANGE (AFETR)
Your satellite tracking list
Your tracking list is empty




NASA's NSSDC Master Catalog

Two Line Element Set (TLE):
1 55461U 23015N   24325.64739589 -.00000746  00000-0 -40130-4 0  9990
2 55461  43.0074  21.9830 0002098 253.5333 106.5279 15.02536833 99449
Source of the keplerian elements: AFSPC